Tracking 23726 objects as of 22-Sep-2021
HD Live streaming from Space Station
objects crossing your sky now

JILIN-01-08

Track JILIN-01-08 now!
10-day predictions


NORAD ID: 43160
Int'l Code: 2018-008F
Perigee: 535.1 km
Apogee: 549.1 km
Inclination: 97.4 °
Period: 95.3 minutes
Semi major axis: 6913 km
RCS: Unknown
Launch date: January 19, 2018
Source: People's Republic of China (PRC)
Launch site: Jiuquan Satellite Launch Center, China (JSC)
aabbcc
Your satellite tracking list
Your tracking list is empty




NASA's NSSDC Master Catalog

Two Line Element Set (TLE):
1 43160U 18008F   21265.53663535  .00000070  00000-0  80013-5 0  9997
2 43160  97.3859 323.9318 0010100  18.3297  89.0567 15.10414301202535
Source of the keplerian elements: AFSPC